Location: Unspecified
(0.0000°N, 0.0000°E)
Time: 23:36:31
(UTC+00:00)

STARLINK-34110 - Visible Passes

Search period start: 20 June 2025 00:00
Search period end: 30 June 2025 00:00
Orbit: 466 x 468 km, 43.0° (Epoch: 20 June)

Date Brightness Start Highest point End Pass type
(mag) Time Alt. Az. Time Alt. Az. Time Alt. Az.
21 Jun 3.5 19:17:52 10° SSW 19:21:13 45° SE 19:21:13 45° SE visible
22 Jun 3.7 18:47:01 10° SSW 18:50:30 40° SE 18:54:00 10° ENE visible
22 Jun 6.6 20:27:40 10° WNW 20:29:09 12° NW 20:29:13 12° NW visible
23 Jun 6.5 19:57:33 10° WNW 19:59:24 13° NW 20:01:15 10° NNW visible
24 Jun 6.5 19:28:44 10° WNW 19:30:47 14° NW 19:32:50 10° N visible
25 Jun 5.4 05:34:39 10° NNW 05:38:09 33° NE 05:41:38 10° ESE visible
25 Jun 6.5 19:01:07 10° W 19:03:16 15° NW 19:05:26 10° N visible
26 Jun 5.3 05:07:36 10° NNW 05:11:08 33° NE 05:14:38 10° ESE visible
26 Jun 6.5 18:34:42 10° W 18:36:52 15° NW 18:39:04 10° N visible
27 Jun 5.2 04:41:39 10° NNW 04:45:14 33° NE 04:48:47 10° ESE visible
28 Jun 5.0 04:16:57 11° NNW 04:20:27 35° NE 04:24:04 10° ESE visible
29 Jun 5.2 03:57:46 32° E 03:57:46 32° E 04:00:30 10° ESE visible
29 Jun 5.2 05:33:36 10° W 05:35:56 15° SW 05:38:14 10° S visible
